Chesterfield, MO

3:11 AM CST on February 13, 2016 (GMT -0600)
Spirit Of Saint Louis

Weather History for KSUS - March, 2013

Change the Weather History Date:

Friday, March 15, 2013

  Actual Average Record
Temperature  
Mean Temperature 50 °F -  
Max Temperature 72 °F 51 °F 82 °F (2012)
Min Temperature 28 °F 30 °F 21 °F (1999)
Degree Days  
Heating Degree Days 15    
Moisture  
Dew Point 36 °F    
Average Humidity 64    
Maximum Humidity 92    
Minimum Humidity 29    
Precipitation  
Precipitation 0.00 in - - ()
Sea Level Pressure  
Sea Level Pressure 29.87 in    
Wind  
Wind Speed 1 mph (South)    
Max Wind Speed 8 mph    
Max Gust Speed -    
Visibility 10 miles    
Events      
Averages and records for this station are not official NWS values.
T = Trace of Precipitation, MM = Missing Value Source: NWS Daily Summary

Daily Weather History Graph

Daily Weather History Graph

Search for Another Location

Airport or City:

Trip Planner

Search our weather history database for the weather conditions in past years. The results will help you decide how hot, cold, wet, or windy it might be!

Date:

Astronomy

Mar. 15, 2013 Rise Set
Actual Time 7:13 AM CDT 7:09 PM CDT
Civil Twilight 6:46 AM CDT 7:36 PM CDT
Nautical Twilight 6:16 AM CDT 8:07 PM CDT
Astronomical Twilight 5:45 AM CDT 8:38 PM CDT
Moon 9:06 AM CDT (3/15) 11:20 PM CDT (3/15)
Length of Visible Light 12h 49m
Length of Day
11h 56m
Waxing Crescent, 15% of the Moon is Illuminated
Mar 15
Waxing Crescent
Mar 19
First Quarter
Mar 27
Full
Apr 2
Last Quarter
Apr 10
New

Hourly Weather History & Observations

Time (CDT) Temp. Windchill Dew Point Humidity Pressure Visibility Wind Dir Wind Speed Gust Speed Precip Events Conditions
12:54 AM 34.0 °F - 28.9 °F 82% 30.10 in 10.0 mi Calm Calm - N/A   Clear
1:54 AM 30.9 °F - 28.0 °F 89% 30.08 in 10.0 mi Calm Calm - N/A   Clear
2:54 AM 30.0 °F - 27.0 °F 88% 30.06 in 10.0 mi Calm Calm - N/A   Clear
3:54 AM 28.0 °F 24.2 °F 25.0 °F 88% 30.02 in 10.0 mi West 3.5 mph - N/A   Clear
4:54 AM 30.0 °F - 26.1 °F 85% 30.01 in 8.0 mi Calm Calm - N/A   Clear
5:54 AM 28.9 °F - 27.0 °F 92% 30.00 in 8.0 mi Calm Calm - N/A   Clear
6:54 AM 28.9 °F - 26.1 °F 89% 30.00 in 9.0 mi Calm Calm - N/A   Clear
7:54 AM 30.0 °F - 28.0 °F 92% 30.00 in 10.0 mi Calm Calm - N/A   Mostly Cloudy
8:54 AM 36.0 °F - 32.0 °F 86% 29.99 in 10.0 mi Calm Calm - N/A   Mostly Cloudy
9:54 AM 44.1 °F - 36.0 °F 73% 29.98 in 10.0 mi Calm Calm - N/A   Mostly Cloudy
10:54 AM 53.1 °F - 39.9 °F 61% 29.96 in 10.0 mi Calm Calm - N/A   Mostly Cloudy
11:54 AM 63.0 °F - 42.1 °F 46% 29.94 in 10.0 mi Calm Calm - N/A   Mostly Cloudy
12:54 PM 68.0 °F - 42.1 °F 39% 29.90 in 10.0 mi Calm Calm - N/A   Mostly Cloudy
1:54 PM 72.0 °F - 39.9 °F 31% 29.85 in 10.0 mi Calm Calm - N/A   Mostly Cloudy
2:54 PM 72.0 °F - 37.9 °F 29% 29.80 in 10.0 mi Calm Calm - N/A   Overcast
3:54 PM 72.0 °F - 39.9 °F 31% 29.76 in 10.0 mi SSE 5.8 mph - N/A   Overcast
4:54 PM 71.1 °F - 42.1 °F 35% 29.73 in 10.0 mi SSE 5.8 mph - N/A   Clear
5:54 PM 71.1 °F - 42.1 °F 35% 29.70 in 10.0 mi SSE 5.8 mph - N/A   Overcast
6:54 PM 69.1 °F - 43.0 °F 39% 29.69 in 10.0 mi Calm Calm - N/A   Mostly Cloudy
7:54 PM 68.0 °F - 43.0 °F 40% 29.68 in 10.0 mi South 8.1 mph - N/A   Mostly Cloudy
8:54 PM 61.0 °F - 44.1 °F 54% 29.68 in 10.0 mi NNW 3.5 mph - N/A   Clear
9:54 PM 53.1 °F - 44.1 °F 71% 29.68 in 10.0 mi Calm Calm - N/A   Clear
10:54 PM 50.0 °F - 43.0 °F 77% 29.68 in 10.0 mi Calm Calm - N/A   Clear
11:54 PM 46.0 °F - 42.1 °F 86% 29.66 in 10.0 mi Calm Calm - N/A   Clear